Time,TemperatureF,DewpointF,PressureIn,WindDirection,WindDirectionDegrees,WindSpeedMPH,WindSpeedGustMPH,Humidity,HourlyPrecipIn,Conditions,Clouds,dailyrainin,SoftwareType,DateUTC
2013-02-14 00:00:00,40.1,38.2,30.01,West,270,0.0,0.0,93,0.00,RA,,0.00,WeatherDisplay:10.37,2013-02-14 05:00:00,
2013-02-14 00:05:00,40.1,38.0,30.01,SW,225,0.0,0.0,92,0.00,RA,,0.00,WeatherDisplay:10.37,2013-02-14 05:05:00,
2013-02-14 00:10:00,40.1,38.0,30.01,SW,225,0.0,0.0,92,0.00,CLR,,0.00,WeatherDisplay:10.37,2013-02-14 05:10:00,
2013-02-14 00:15:00,40.1,38.0,30.02,NW,315,0.0,1.3,92,0.00,CLR,,0.00,WeatherDisplay:10.37,2013-02-14 05:15:00,
2013-02-14 00:20:00,40.1,37.7,30.02,West,270,5.8,5.8,91,0.00,CLR,,0.00,WeatherDisplay:10.37,2013-02-14 05:20:00,
2013-02-14 00:25:00,40.1,37.4,30.01,West,270,2.3,0.0,90,0.00,CLR,,0.00,WeatherDisplay:10.37,2013-02-14 05:25:00,
2013-02-14 00:30:00,40.1,37.4,30.01,North,0,4.6,0.0,90,0.00,CLR,,0.00,WeatherDisplay:10.37,2013-02-14 05:30:00,
2013-02-14 00:35:00,40.1,37.1,30.02,NW,315,4.6,0.0,89,0.00,CLR,,0.00,WeatherDisplay:10.37,2013-02-14 05:35:00,
2013-02-14 00:40:00,40.1,37.1,30.01,West,270,2.3,2.7,89,0.00,CLR,,0.00,WeatherDisplay:10.37,2013-02-14 05:40:00,
2013-02-14 00:45:00,40.1,37.1,30.02,North,0,2.3,0.0,89,0.00,CLR,,0.00,WeatherDisplay:10.37,2013-02-14 05:45:00,
2013-02-14 00:50:00,40.1,36.8,30.02,NW,315,1.1,0.0,88,0.00,CLR,,0.00,WeatherDisplay:10.37,2013-02-14 05:50:00,
2013-02-14 00:55:00,40.1,36.8,30.01,North,0,2.3,0.0,88,0.00,CLR,,0.00,WeatherDisplay:10.37,2013-02-14 05:55:00,
2013-02-14 01:00:00,40.1,36.8,30.02,North,0,2.7,2.7,88,0.00,CLR,,0.00,WeatherDisplay:10.37,2013-02-14 06:00:00,
2013-02-14 01:05:00,40.1,36.8,30.02,North,0,2.3,2.3,88,0.00,CLR,,0.00,WeatherDisplay:10.37,2013-02-14 06:05:00,
2013-02-14 01:10:00,40.1,36.5,30.02,North,0,4.6,4.6,87,0.00,CLR,,0.00,WeatherDisplay:10.37,2013-02-14 06:10:00,
2013-02-14 01:15:00,40.1,36.5,30.02,NE,45,1.1,0.0,87,0.00,CLR,,0.00,WeatherDisplay:10.37,2013-02-14 06:15:00,
2013-02-14 01:20:00,40.1,36.5,30.02,West,270,0.0,0.0,87,0.00,CLR,,0.00,WeatherDisplay:10.37,2013-02-14 06:20:00,
2013-02-14 01:25:00,40.1,36.5,30.02,West,270,0.0,0.0,87,0.00,CLR,,0.00,WeatherDisplay:10.37,2013-02-14 06:25:00,
2013-02-14 01:30:00,39.9,36.7,30.02,North,0,0.0,0.0,88,0.00,CLR,,0.00,WeatherDisplay:10.37,2013-02-14 06:30:00,
2013-02-14 01:35:00,39.9,36.7,30.02,North,0,0.0,0.0,88,0.00,CLR,,0.00,WeatherDisplay:10.37,2013-02-14 06:35:00,
2013-02-14 01:40:00,39.9,36.7,30.02,North,0,0.0,0.0,88,0.00,CLR,,0.00,WeatherDisplay:10.37,2013-02-14 06:40:00,
2013-02-14 01:45:00,39.9,36.7,30.02,North,0,0.0,0.0,88,0.00,CLR,,0.00,WeatherDisplay:10.37,2013-02-14 06:45:00,
2013-02-14 01:50:00,39.9,36.9,30.02,North,0,0.0,0.0,89,0.00,CLR,,0.00,WeatherDisplay:10.37,2013-02-14 06:50:00,
2013-02-14 01:55:00,39.7,36.8,30.02,North,0,0.0,0.0,89,0.00,CLR,,0.00,WeatherDisplay:10.37,2013-02-14 06:55:00,
2013-02-14 02:00:00,39.7,37.0,30.02,NW,315,0.0,0.0,90,0.00,CLR,,0.00,WeatherDisplay:10.37,2013-02-14 07:00:00,
2013-02-14 02:05:00,39.7,37.0,30.02,NW,315,0.0,0.0,90,0.00,CLR,,0.00,WeatherDisplay:10.37,2013-02-14 07:05:00,
2013-02-14 02:10:00,39.7,37.3,30.02,NW,315,0.0,0.0,91,0.00,CLR,,0.00,WeatherDisplay:10.37,2013-02-14 07:10:00,
2013-02-14 02:15:00,39.7,37.6,30.02,NW,315,0.0,0.0,92,0.00,CLR,,0.00,WeatherDisplay:10.37,2013-02-14 07:15:00,
2013-02-14 02:20:00,39.7,37.6,30.02,NW,315,0.0,0.0,92,0.00,CLR,,0.00,WeatherDisplay:10.37,2013-02-14 07:20:00,
2013-02-14 02:25:00,39.7,37.6,30.02,North,0,0.0,0.0,92,0.00,CLR,,0.00,WeatherDisplay:10.37,2013-02-14 07:25:00,
2013-02-14 02:30:00,39.7,37.6,30.02,NW,315,0.0,0.0,92,0.00,CLR,,0.00,WeatherDisplay:10.37,2013-02-14 07:30:00,
2013-02-14 02:35:00,39.7,37.6,30.03,NW,315,0.0,0.0,92,0.00,CLR,,0.00,WeatherDisplay:10.37,2013-02-14 07:35:00,
2013-02-14 02:40:00,39.7,37.6,30.03,NW,315,0.0,0.0,92,0.00,CLR,,0.00,WeatherDisplay:10.37,2013-02-14 07:40:00,
2013-02-14 02:45:00,39.7,37.3,30.02,NE,45,0.0,0.0,91,0.00,CLR,,0.00,WeatherDisplay:10.37,2013-02-14 07:45:00,
2013-02-14 02:50:00,39.7,37.3,30.02,South,180,1.1,0.0,91,0.00,CLR,,0.00,WeatherDisplay:10.37,2013-02-14 07:50:00,
2013-02-14 02:55:00,39.7,37.3,30.02,North,0,0.0,1.3,91,0.00,CLR,,0.00,WeatherDisplay:10.37,2013-02-14 07:55:00,
2013-02-14 03:00:00,39.7,37.0,30.02,NE,45,1.1,0.0,90,0.00,CLR,,0.00,WeatherDisplay:10.37,2013-02-14 08:00:00,
2013-02-14 03:05:00,39.7,37.0,30.03,NE,45,1.1,0.0,90,0.00,CLR,,0.00,WeatherDisplay:10.37,2013-02-14 08:05:00,
2013-02-14 03:10:00,39.7,37.0,30.03,NW,315,0.0,0.0,90,0.00,CLR,,0.00,WeatherDisplay:10.37,2013-02-14 08:10:00,
2013-02-14 03:15:00,39.7,37.0,30.03,East,90,0.0,1.3,90,0.00,CLR,,0.00,WeatherDisplay:10.37,2013-02-14 08:15:00,
2013-02-14 03:20:00,39.7,37.0,30.02,East,90,4.6,0.0,90,0.00,CLR,,0.00,WeatherDisplay:10.37,2013-02-14 08:20:00,
2013-02-14 03:25:00,39.6,36.9,30.02,East,90,1.1,0.0,90,0.00,CLR,,0.00,WeatherDisplay:10.37,2013-02-14 08:25:00,
2013-02-14 03:30:00,39.6,37.2,30.03,East,90,0.0,0.0,91,0.00,CLR,,0.00,WeatherDisplay:10.37,2013-02-14 08:30:00,
2013-02-14 03:35:00,39.6,37.2,30.03,East,90,0.0,0.0,91,0.00,CLR,,0.00,WeatherDisplay:10.37,2013-02-14 08:35:00,
2013-02-14 03:40:00,39.4,37.0,30.02,East,90,0.0,0.0,91,0.00,CLR,,0.00,WeatherDisplay:10.37,2013-02-14 08:40:00,
2013-02-14 03:45:00,39.4,37.0,30.02,East,90,0.0,0.0,91,0.00,CLR,,0.00,WeatherDisplay:10.37,2013-02-14 08:45:00,
2013-02-14 03:50:00,39.4,37.0,30.03,East,90,0.0,0.0,91,0.00,CLR,,0.00,WeatherDisplay:10.37,2013-02-14 08:50:00,
2013-02-14 03:55:00,39.4,37.0,30.02,East,90,0.0,0.0,91,0.00,CLR,,0.00,WeatherDisplay:10.37,2013-02-14 08:55:00,
2013-02-14 04:00:00,39.4,37.0,30.03,East,90,0.0,0.0,91,0.00,CLR,,0.00,WeatherDisplay:10.37,2013-02-14 09:00:00,
2013-02-14 04:05:00,39.4,37.0,30.03,East,90,0.0,0.0,91,0.00,CLR,,0.00,WeatherDisplay:10.37,2013-02-14 09:05:00,
2013-02-14 04:10:00,39.4,37.0,30.02,East,90,0.0,0.0,91,0.00,CLR,,0.00,WeatherDisplay:10.37,2013-02-14 09:10:00,
2013-02-14 04:15:00,39.4,37.2,30.03,East,90,0.0,0.0,92,0.00,CLR,,0.00,WeatherDisplay:10.37,2013-02-14 09:15:00,
2013-02-14 04:20:00,39.2,37.1,30.03,North,0,0.0,0.0,92,0.00,CLR,,0.00,WeatherDisplay:10.37,2013-02-14 09:20:00,
2013-02-14 04:25:00,39.2,37.3,30.03,West,270,0.0,0.0,93,0.00,CLR,,0.00,WeatherDisplay:10.37,2013-02-14 09:25:00,
2013-02-14 04:30:00,39.2,37.3,30.03,West,270,0.0,0.0,93,0.00,CLR,,0.00,WeatherDisplay:10.37,2013-02-14 09:30:00,
2013-02-14 04:35:00,39.2,37.3,30.02,West,270,0.0,0.0,93,0.00,CLR,,0.00,WeatherDisplay:10.37,2013-02-14 09:35:00,
2013-02-14 04:40:00,39.0,37.4,30.03,West,270,0.0,0.0,94,0.00,CLR,,0.00,WeatherDisplay:10.37,2013-02-14 09:40:00,
2013-02-14 04:45:00,39.0,37.4,30.03,West,270,0.0,0.0,94,0.00,CLR,,0.00,WeatherDisplay:10.37,2013-02-14 09:45:00,
2013-02-14 04:50:00,39.0,37.4,30.03,West,270,0.0,0.0,94,0.00,CLR,,0.00,WeatherDisplay:10.37,2013-02-14 09:50:00,
2013-02-14 04:55:00,38.8,37.3,30.03,North,0,0.0,1.3,94,0.00,CLR,,0.00,WeatherDisplay:10.37,2013-02-14 09:55:00,
2013-02-14 05:00:00,38.8,37.0,30.03,NW,315,0.0,0.0,93,0.00,CLR,,0.00,WeatherDisplay:10.37,2013-02-14 10:00:00,
2013-02-14 05:05:00,38.8,37.0,30.03,NW,315,0.0,0.0,93,0.00,CLR,,0.00,WeatherDisplay:10.37,2013-02-14 10:05:00,
2013-02-14 05:10:00,38.7,36.3,30.03,West,270,0.0,0.0,91,0.00,CLR,,0.00,WeatherDisplay:10.37,2013-02-14 10:10:00,
2013-02-14 05:15:00,38.3,35.6,30.03,West,270,0.0,0.0,90,0.00,CLR,,0.00,WeatherDisplay:10.37,2013-02-14 10:15:00,
2013-02-14 05:20:00,38.1,35.4,30.03,North,0,0.0,0.0,90,0.00,CLR,,0.00,WeatherDisplay:10.37,2013-02-14 10:20:00,
2013-02-14 05:25:00,37.9,35.5,30.03,North,0,0.0,0.0,91,0.00,CLR,,0.00,WeatherDisplay:10.37,2013-02-14 10:25:00,
2013-02-14 05:30:00,37.9,35.5,30.03,West,270,0.0,0.0,91,0.00,CLR,,0.00,WeatherDisplay:10.37,2013-02-14 10:30:00,
2013-02-14 05:35:00,37.8,35.6,30.03,West,270,0.0,0.0,92,0.00,CLR,,0.00,WeatherDisplay:10.37,2013-02-14 10:35:00,
2013-02-14 05:40:00,37.8,35.6,30.03,West,270,0.0,0.0,92,0.00,CLR,,0.00,WeatherDisplay:10.37,2013-02-14 10:40:00,
2013-02-14 05:45:00,37.9,36.1,30.03,West,270,0.0,0.0,93,0.00,CLR,,0.00,WeatherDisplay:10.37,2013-02-14 10:45:00,
2013-02-14 05:50:00,37.9,36.1,30.03,NNE,22,4.6,0.0,93,0.00,CLR,,0.00,WeatherDisplay:10.37,2013-02-14 10:50:00,
2013-02-14 05:56:00,37.9,36.4,30.03,West,270,0.0,0.0,94,0.00,CLR,,0.00,WeatherDisplay:10.37,2013-02-14 10:56:00,
2013-02-14 06:01:00,37.9,36.4,30.03,West,270,0.0,0.0,94,0.00,CLR,,0.00,WeatherDisplay:10.37,2013-02-14 11:01:00,
2013-02-14 06:06:00,37.9,36.1,30.03,North,0,0.0,0.0,93,0.00,CLR,,0.00,WeatherDisplay:10.37,2013-02-14 11:06:00,
2013-02-14 06:11:00,37.8,35.9,30.03,West,270,0.0,0.0,93,0.00,CLR,,0.00,WeatherDisplay:10.37,2013-02-14 11:11:00,
2013-02-14 06:16:00,37.8,35.9,30.03,West,270,0.0,0.0,93,0.00,CLR,,0.00,WeatherDisplay:10.37,2013-02-14 11:16:00,
2013-02-14 06:21:00,37.6,35.7,30.03,West,270,0.0,0.0,93,0.00,CLR,,0.00,WeatherDisplay:10.37,2013-02-14 11:21:00,
2013-02-14 06:26:00,37.2,34.3,30.03,West,270,0.0,0.0,89,0.00,CLR,,0.00,WeatherDisplay:10.37,2013-02-14 11:26:00,
2013-02-14 06:31:00,36.9,33.6,30.04,North,0,0.0,0.0,88,0.00,CLR,,0.00,WeatherDisplay:10.37,2013-02-14 11:31:00,
2013-02-14 06:36:00,36.7,33.5,30.03,North,0,0.0,0.0,88,0.00,CLR,,0.00,WeatherDisplay:10.37,2013-02-14 11:36:00,
2013-02-14 06:41:00,36.3,33.1,30.03,North,0,0.0,0.0,88,0.00,CLR,,0.00,WeatherDisplay:10.37,2013-02-14 11:41:00,
2013-02-14 06:46:00,36.1,33.2,30.04,North,0,0.0,0.0,89,0.00,CLR,,0.00,WeatherDisplay:10.37,2013-02-14 11:46:00,
2013-02-14 06:51:00,35.8,32.9,30.04,SW,225,0.0,0.0,89,0.00,CLR,,0.00,WeatherDisplay:10.37,2013-02-14 11:51:00,
2013-02-14 06:56:00,35.6,32.7,30.05,SW,225,0.0,0.0,89,0.00,CLR,,0.00,WeatherDisplay:10.37,2013-02-14 11:56:00,
2013-02-14 07:01:00,35.4,32.8,30.05,NW,315,0.0,0.0,90,0.00,CLR,,0.00,WeatherDisplay:10.37,2013-02-14 12:01:00,
2013-02-14 07:06:00,35.4,32.8,30.05,NW,315,0.0,0.0,90,0.00,CLR,,0.00,WeatherDisplay:10.37,2013-02-14 12:06:00,
2013-02-14 07:11:00,34.7,32.1,30.06,NW,315,0.0,0.0,90,0.00,CLR,,0.00,WeatherDisplay:10.37,2013-02-14 12:11:00,
2013-02-14 07:16:00,34.3,32.0,30.05,South,180,2.3,0.0,91,0.00,CLR,,0.00,WeatherDisplay:10.37,2013-02-14 12:16:00,
2013-02-14 07:21:00,34.2,31.8,30.05,SW,225,0.0,0.0,91,0.00,CLR,,0.00,WeatherDisplay:10.37,2013-02-14 12:21:00,
2013-02-14 07:26:00,34.0,31.6,30.06,West,270,0.0,0.0,91,0.00,CLR,,0.00,WeatherDisplay:10.37,2013-02-14 12:26:00,
2013-02-14 07:31:00,33.6,31.5,30.06,West,270,0.0,0.0,92,0.00,CLR,,0.00,WeatherDisplay:10.37,2013-02-14 12:31:00,
2013-02-14 07:36:00,33.3,31.5,30.07,West,270,0.0,0.0,93,0.00,CLR,,0.00,WeatherDisplay:10.37,2013-02-14 12:36:00,
2013-02-14 07:41:00,33.1,31.3,30.07,NW,315,0.0,0.0,93,0.00,CLR,,0.00,WeatherDisplay:10.37,2013-02-14 12:41:00,
2013-02-14 07:46:00,32.9,31.1,30.08,NW,315,0.0,0.0,93,0.00,CLR,,0.00,WeatherDisplay:10.37,2013-02-14 12:46:00,
2013-02-14 07:51:00,32.7,30.9,30.07,NW,315,0.0,0.0,93,0.00,CLR,,0.00,WeatherDisplay:10.37,2013-02-14 12:51:00,
2013-02-14 07:56:00,32.5,30.7,30.07,NW,315,0.0,0.0,93,0.00,CLR,,0.00,WeatherDisplay:10.37,2013-02-14 12:56:00,
2013-02-14 08:01:00,32.5,31.0,30.07,NW,315,0.0,0.0,94,0.00,CLR,,0.00,WeatherDisplay:10.37,2013-02-14 13:01:00,
2013-02-14 08:06:00,32.4,30.8,30.07,NW,315,0.0,0.0,94,0.00,CLR,,0.00,WeatherDisplay:10.37,2013-02-14 13:06:00,
2013-02-14 08:11:00,32.5,31.0,30.07,NW,315,0.0,0.0,94,0.00,CLR,,0.00,WeatherDisplay:10.37,2013-02-14 13:11:00,
2013-02-14 08:16:00,32.5,31.0,30.08,NW,315,0.0,0.0,94,0.00,CLR,,0.00,WeatherDisplay:10.37,2013-02-14 13:16:00,
2013-02-14 08:21:00,32.7,31.4,30.08,NW,315,0.0,0.0,95,0.00,CLR,,0.00,WeatherDisplay:10.37,2013-02-14 13:21:00,
2013-02-14 08:26:00,33.1,31.8,30.09,NW,315,0.0,0.0,95,0.00,CLR,,0.00,WeatherDisplay:10.37,2013-02-14 13:26:00,
2013-02-14 08:31:00,33.3,32.2,30.09,East,90,0.0,0.0,96,0.00,CLR,,0.00,WeatherDisplay:10.37,2013-02-14 13:31:00,
2013-02-14 08:36:00,34.3,33.1,30.09,SE,135,1.1,0.0,95,0.00,CLR,,0.00,WeatherDisplay:10.37,2013-02-14 13:36:00,
2013-02-14 08:41:00,35.8,34.5,30.09,SE,135,0.0,0.0,95,0.00,CLR,,0.00,WeatherDisplay:10.37,2013-02-14 13:41:00,
2013-02-14 08:46:00,36.9,35.8,30.09,SE,135,4.6,4.6,96,0.00,CLR,,0.00,WeatherDisplay:10.37,2013-02-14 13:46:00,
2013-02-14 08:51:00,37.8,37.5,30.09,South,180,2.3,0.0,99,0.00,CLR,,0.00,WeatherDisplay:10.37,2013-02-14 13:51:00,
2013-02-14 08:56:00,38.5,38.2,30.10,South,180,0.0,0.0,99,0.00,CLR,,0.00,WeatherDisplay:10.37,2013-02-14 13:56:00,
2013-02-14 09:01:00,39.2,38.4,30.09,South,180,0.0,0.0,97,0.00,CLR,,0.00,WeatherDisplay:10.37,2013-02-14 14:01:00,
2013-02-14 09:06:00,39.9,38.6,30.09,SE,135,2.3,2.3,95,0.00,CLR,,0.00,WeatherDisplay:10.37,2013-02-14 14:06:00,
2013-02-14 09:11:00,40.3,38.4,30.10,SSW,202,1.1,0.0,93,0.00,CLR,,0.00,WeatherDisplay:10.37,2013-02-14 14:11:00,
2013-02-14 09:16:00,40.6,38.2,30.09,SW,225,5.8,5.8,91,0.00,CLR,,0.00,WeatherDisplay:10.37,2013-02-14 14:16:00,
2013-02-14 09:21:00,41.2,37.6,30.09,SW,225,5.8,5.8,87,0.00,CLR,,0.00,WeatherDisplay:10.37,2013-02-14 14:21:00,
2013-02-14 09:44:00,43.5,37.4,30.10,SW,225,6.9,6.9,79,0.00,CLR,,0.00,WeatherDisplay:10.37,2013-02-14 14:44:00,
2013-02-14 09:49:00,43.3,36.3,30.09,South,180,6.9,6.9,76,0.00,CLR,,0.00,WeatherDisplay:10.37,2013-02-14 14:49:00,
2013-02-14 09:54:00,43.3,35.9,30.09,SSW,202,6.9,6.9,75,0.00,CLR,,0.00,WeatherDisplay:10.37,2013-02-14 14:54:00,
2013-02-14 09:59:00,43.2,35.8,30.09,NNW,338,2.3,0.0,75,0.00,CLR,,0.00,WeatherDisplay:10.37,2013-02-14 14:59:00,
2013-02-14 10:04:00,43.3,36.3,30.08,SSW,202,10.4,10.4,76,0.00,CLR,,0.00,WeatherDisplay:10.37,2013-02-14 15:04:00,
2013-02-14 10:09:00,43.5,36.1,30.09,SW,225,5.8,5.8,75,0.00,CLR,,0.00,WeatherDisplay:10.37,2013-02-14 15:09:00,
2013-02-14 10:14:00,43.9,36.8,30.08,SW,225,6.9,6.9,76,0.00,CLR,,0.00,WeatherDisplay:10.37,2013-02-14 15:14:00,
2013-02-14 10:19:00,43.9,36.5,30.09,West,270,10.4,10.4,75,0.00,CLR,,0.00,WeatherDisplay:10.37,2013-02-14 15:19:00,
2013-02-14 10:24:00,43.9,36.5,30.08,SW,225,6.9,6.9,75,0.00,CLR,,0.00,WeatherDisplay:10.37,2013-02-14 15:24:00,
2013-02-14 10:29:00,43.9,36.5,30.08,West,270,6.9,6.9,75,0.00,CLR,,0.00,WeatherDisplay:10.37,2013-02-14 15:29:00,
2013-02-14 10:34:00,43.9,36.5,30.07,SW,225,2.3,4.4,75,0.00,CLR,,0.00,WeatherDisplay:10.37,2013-02-14 15:34:00,
2013-02-14 10:39:00,44.2,37.2,30.07,SSW,202,8.4,8.4,76,0.00,CLR,,0.00,WeatherDisplay:10.37,2013-02-14 15:39:00,
2013-02-14 10:44:00,44.4,37.3,30.07,SW,225,6.9,6.9,76,0.00,CLR,,0.00,WeatherDisplay:10.37,2013-02-14 15:44:00,
2013-02-14 10:49:00,44.6,36.8,30.06,SW,225,4.6,4.6,74,0.00,CLR,,0.00,WeatherDisplay:10.37,2013-02-14 15:49:00,
2013-02-14 10:54:00,45.3,37.5,30.06,SSW,202,6.9,6.9,74,0.00,CLR,,0.00,WeatherDisplay:10.37,2013-02-14 15:54:00,
2013-02-14 10:59:00,45.7,37.5,30.06,NE,45,11.5,11.5,73,0.00,CLR,,0.00,WeatherDisplay:10.37,2013-02-14 15:59:00,
2013-02-14 11:04:00,46.0,37.9,30.06,SW,225,5.8,5.8,73,0.00,CLR,,0.00,WeatherDisplay:10.37,2013-02-14 16:04:00,
2013-02-14 11:09:00,46.4,38.2,30.06,South,180,6.9,6.9,73,0.00,CLR,,0.00,WeatherDisplay:10.37,2013-02-14 16:09:00,
2013-02-14 11:14:00,46.8,38.6,30.06,South,180,8.1,8.1,73,0.00,CLR,,0.00,WeatherDisplay:10.37,2013-02-14 16:14:00,
2013-02-14 11:19:00,47.1,38.9,30.06,South,180,8.1,8.1,73,0.00,CLR,,0.00,WeatherDisplay:10.37,2013-02-14 16:19:00,
2013-02-14 11:24:00,47.8,39.2,30.06,SW,225,12.8,12.8,72,0.00,CLR,,0.00,WeatherDisplay:10.37,2013-02-14 16:24:00,
2013-02-14 11:29:00,48.0,39.4,30.06,WSW,248,10.4,10.4,72,0.00,CLR,,0.00,WeatherDisplay:10.37,2013-02-14 16:29:00,
2013-02-14 11:34:00,48.4,39.4,30.07,SE,135,6.9,6.9,71,0.00,CLR,,0.00,WeatherDisplay:10.37,2013-02-14 16:34:00,
2013-02-14 11:39:00,48.7,39.4,30.07,East,90,6.9,6.9,70,0.00,CLR,,0.00,WeatherDisplay:10.37,2013-02-14 16:39:00,
2013-02-14 11:44:00,49.3,39.9,30.07,SE,135,5.8,5.8,70,0.00,CLR,,0.00,WeatherDisplay:10.37,2013-02-14 16:44:00,
2013-02-14 11:49:00,49.6,39.9,30.07,South,180,10.4,10.4,69,0.00,CLR,,0.00,WeatherDisplay:10.37,2013-02-14 16:49:00,
2013-02-14 11:54:00,49.6,39.9,30.07,South,180,10.4,10.4,69,0.00,CLR,,0.00,WeatherDisplay:10.37,2013-02-14 16:54:00,
2013-02-14 11:59:00,50.4,40.2,30.08,NE,45,6.9,6.9,68,0.00,CLR,,0.00,WeatherDisplay:10.37,2013-02-14 16:59:00,
2013-02-14 12:04:00,50.5,40.0,30.07,West,270,11.5,11.5,67,0.00,CLR,,0.00,WeatherDisplay:10.37,2013-02-14 17:04:00,
2013-02-14 12:09:00,50.7,40.2,30.07,NW,315,8.1,8.1,67,0.00,CLR,,0.00,WeatherDisplay:10.37,2013-02-14 17:09:00,
2013-02-14 12:14:00,50.9,39.9,30.07,NE,45,6.9,6.9,66,0.00,CLR,,0.00,WeatherDisplay:10.37,2013-02-14 17:14:00,
2013-02-14 12:19:00,51.4,40.8,30.07,SW,225,10.4,10.4,67,0.00,CLR,,0.00,WeatherDisplay:10.37,2013-02-14 17:19:00,
2013-02-14 12:24:00,51.3,39.9,30.07,SW,225,11.5,11.5,65,0.00,CLR,,0.00,WeatherDisplay:10.37,2013-02-14 17:24:00,
2013-02-14 12:29:00,51.6,40.6,30.07,SE,135,6.9,6.9,66,0.00,CLR,,0.00,WeatherDisplay:10.37,2013-02-14 17:29:00,
2013-02-14 12:34:00,52.2,40.7,30.07,SE,135,12.7,12.7,65,0.00,CLR,,0.00,WeatherDisplay:10.37,2013-02-14 17:34:00,
2013-02-14 12:39:00,52.2,40.7,30.06,NW,315,11.5,11.5,65,0.00,CLR,,0.00,WeatherDisplay:10.37,2013-02-14 17:39:00,
2013-02-14 12:44:00,52.3,40.5,30.06,South,180,10.4,10.4,64,0.00,CLR,,0.00,WeatherDisplay:10.37,2013-02-14 17:44:00,
2013-02-14 12:49:00,52.2,40.3,30.06,SW,225,10.4,10.4,64,0.00,CLR,,0.00,WeatherDisplay:10.37,2013-02-14 17:49:00,
2013-02-14 12:54:00,52.3,40.5,30.06,SW,225,7.0,7.0,64,0.00,CLR,,0.00,WeatherDisplay:10.37,2013-02-14 17:54:00,
2013-02-14 12:59:00,52.5,40.7,30.05,SE,135,8.1,8.1,64,0.00,CLR,,0.00,WeatherDisplay:10.37,2013-02-14 17:59:00,
2013-02-14 13:04:00,52.5,40.7,30.05,South,180,12.7,12.7,64,0.00,CLR,,0.00,WeatherDisplay:10.37,2013-02-14 18:04:00,
2013-02-14 13:09:00,52.7,40.9,30.05,WSW,248,10.4,10.4,64,0.00,CLR,,0.00,WeatherDisplay:10.37,2013-02-14 18:09:00,
2013-02-14 13:14:00,53.1,41.2,30.04,North,0,8.1,8.1,64,0.00,CLR,,0.00,WeatherDisplay:10.37,2013-02-14 18:14:00,
2013-02-14 13:19:00,53.4,41.1,30.04,SW,225,10.4,10.4,63,0.00,CLR,,0.00,WeatherDisplay:10.37,2013-02-14 18:19:00,
2013-02-14 13:24:00,52.7,40.5,30.03,SW,225,8.1,8.1,63,0.00,CLR,,0.00,WeatherDisplay:10.37,2013-02-14 18:24:00,
2013-02-14 13:29:00,51.4,40.1,30.03,South,180,11.5,11.5,65,0.00,CLR,,0.00,WeatherDisplay:10.37,2013-02-14 18:29:00,
2013-02-14 13:34:00,52.0,40.6,30.03,SW,225,6.9,6.9,65,0.00,CLR,,0.00,WeatherDisplay:10.37,2013-02-14 18:34:00,
2013-02-14 13:39:00,52.9,41.4,30.03,SW,225,12.7,12.7,65,0.00,CLR,,0.00,WeatherDisplay:10.37,2013-02-14 18:39:00,
2013-02-14 13:44:00,53.6,41.3,30.02,East,90,4.6,4.6,63,0.00,CLR,,0.00,WeatherDisplay:10.37,2013-02-14 18:44:00,
2013-02-14 13:49:00,54.0,41.6,30.01,West,270,5.8,5.8,63,0.00,CLR,,0.00,WeatherDisplay:10.37,2013-02-14 18:49:00,
2013-02-14 13:54:00,54.3,41.6,30.01,West,270,13.8,13.8,62,0.00,CLR,,0.00,WeatherDisplay:10.37,2013-02-14 18:54:00,
2013-02-14 13:59:00,54.3,41.6,30.01,West,270,6.9,6.9,62,0.00,CLR,,0.00,WeatherDisplay:10.37,2013-02-14 18:59:00,
2013-02-14 14:04:00,54.0,40.8,30.01,West,270,11.5,11.5,61,0.00,CLR,,0.00,WeatherDisplay:10.37,2013-02-14 19:04:00,
2013-02-14 14:09:00,54.3,41.6,30.01,West,270,12.7,12.7,62,0.00,CLR,,0.00,WeatherDisplay:10.37,2013-02-14 19:09:00,
2013-02-14 14:14:00,54.9,41.7,30.01,West,270,8.1,8.1,61,0.00,CLR,,0.00,WeatherDisplay:10.37,2013-02-14 19:14:00,
2013-02-14 14:19:00,55.2,42.0,30.01,West,270,8.1,8.1,61,0.00,CLR,,0.00,WeatherDisplay:10.37,2013-02-14 19:19:00,
2013-02-14 14:24:00,55.6,41.9,30.01,SW,225,4.6,4.6,60,0.00,CLR,,0.00,WeatherDisplay:10.37,2013-02-14 19:24:00,
2013-02-14 14:29:00,55.8,41.6,30.01,SW,225,8.1,8.1,59,0.00,CLR,,0.00,WeatherDisplay:10.37,2013-02-14 19:29:00,
2013-02-14 14:34:00,55.6,41.5,30.02,SE,135,10.4,10.4,59,0.00,CLR,,0.00,WeatherDisplay:10.37,2013-02-14 19:34:00,
2013-02-14 14:39:00,55.2,41.6,30.02,SSW,202,16.1,16.1,60,0.00,CLR,,0.00,WeatherDisplay:10.37,2013-02-14 19:39:00,
2013-02-14 14:44:00,55.2,41.6,30.01,SW,225,11.5,11.5,60,0.00,CLR,,0.00,WeatherDisplay:10.37,2013-02-14 19:44:00,
2013-02-14 14:49:00,55.4,41.7,30.01,SE,135,12.7,12.7,60,0.00,CLR,,0.00,WeatherDisplay:10.37,2013-02-14 19:49:00,
2013-02-14 14:54:00,55.6,41.9,30.01,SW,225,13.8,13.8,60,0.00,CLR,,0.00,WeatherDisplay:10.37,2013-02-14 19:54:00,
2013-02-14 15:01:00,55.6,41.9,30.01,SW,225,12.7,12.7,60,0.00,CLR,,0.00,WeatherDisplay:10.37,2013-02-14 20:01:00,
2013-02-14 15:06:00,55.9,42.2,30.00,South,180,10.4,10.4,60,0.00,CLR,,0.00,WeatherDisplay:10.37,2013-02-14 20:06:00,
2013-02-14 15:11:00,55.9,41.8,30.00,South,180,21.9,21.9,59,0.00,CLR,,0.00,WeatherDisplay:10.37,2013-02-14 20:11:00,
2013-02-14 15:16:00,55.9,41.8,30.00,SW,225,24.2,24.2,59,0.00,CLR,,0.00,WeatherDisplay:10.37,2013-02-14 20:16:00,
2013-02-14 15:21:00,56.3,42.1,30.00,SE,135,11.5,11.5,59,0.00,CLR,,0.00,WeatherDisplay:10.37,2013-02-14 20:21:00,
2013-02-14 15:26:00,56.5,41.9,30.00,SE,135,11.5,11.5,58,0.00,CLR,,0.00,WeatherDisplay:10.37,2013-02-14 20:26:00,
2013-02-14 15:31:00,56.5,41.4,30.00,South,180,8.1,8.1,57,0.00,CLR,,0.00,WeatherDisplay:10.37,2013-02-14 20:31:00,
2013-02-14 15:36:00,56.8,42.2,30.00,South,180,10.4,10.4,58,0.00,CLR,,0.00,WeatherDisplay:10.37,2013-02-14 20:36:00,
2013-02-14 15:41:00,57.6,42.0,30.00,SW,225,11.5,11.5,56,0.00,CLR,,0.00,WeatherDisplay:10.37,2013-02-14 20:41:00,
2013-02-14 15:46:00,57.7,42.1,30.00,SW,225,4.6,4.6,56,0.00,CLR,,0.00,WeatherDisplay:10.37,2013-02-14 20:46:00,
2013-02-14 15:51:00,58.1,41.5,30.00,NW,315,10.4,10.4,54,0.00,CLR,,0.00,WeatherDisplay:10.37,2013-02-14 20:51:00,
2013-02-14 15:56:00,58.3,41.7,30.01,SW,225,8.1,8.1,54,0.00,CLR,,0.00,WeatherDisplay:10.37,2013-02-14 20:56:00,
2013-02-14 16:01:00,58.3,41.7,30.01,SSW,202,12.7,12.7,54,0.00,CLR,,0.00,WeatherDisplay:10.37,2013-02-14 21:01:00,
2013-02-14 16:06:00,58.3,41.7,30.00,WSW,248,16.1,16.1,54,0.00,CLR,,0.00,WeatherDisplay:10.37,2013-02-14 21:06:00,
2013-02-14 16:11:00,57.7,41.2,30.00,SW,225,10.4,10.4,54,0.00,CLR,,0.00,WeatherDisplay:10.37,2013-02-14 21:11:00,
2013-02-14 16:16:00,57.7,41.2,30.00,West,270,13.8,13.8,54,0.00,CLR,,0.00,WeatherDisplay:10.37,2013-02-14 21:16:00,
2013-02-14 16:21:00,57.6,41.0,30.01,SW,225,8.1,8.1,54,0.00,CLR,,0.00,WeatherDisplay:10.37,2013-02-14 21:21:00,
2013-02-14 16:26:00,57.4,40.9,30.01,SW,225,10.4,10.4,54,0.00,CLR,,0.00,WeatherDisplay:10.37,2013-02-14 21:26:00,
2013-02-14 16:31:00,57.2,40.7,30.00,SW,225,13.8,13.8,54,0.00,CLR,,0.00,WeatherDisplay:10.37,2013-02-14 21:31:00,
2013-02-14 16:36:00,57.0,41.0,30.00,South,180,8.1,8.1,55,0.00,CLR,,0.00,WeatherDisplay:10.37,2013-02-14 21:36:00,
2013-02-14 16:41:00,57.0,41.0,30.00,SE,135,10.4,10.4,55,0.00,CLR,,0.00,WeatherDisplay:10.37,2013-02-14 21:41:00,
2013-02-14 16:46:00,57.2,41.2,30.00,South,180,11.5,11.5,55,0.00,CLR,,0.00,WeatherDisplay:10.37,2013-02-14 21:46:00,
2013-02-14 16:51:00,57.0,41.0,30.00,SW,225,10.4,10.4,55,0.00,CLR,,0.00,WeatherDisplay:10.37,2013-02-14 21:51:00,
2013-02-14 16:56:00,56.8,40.8,30.00,SW,225,8.1,8.1,55,0.00,CLR,,0.00,WeatherDisplay:10.37,2013-02-14 21:56:00,
2013-02-14 17:01:00,56.8,40.8,30.00,SW,225,6.9,6.9,55,0.00,CLR,,0.00,WeatherDisplay:10.37,2013-02-14 22:01:00,
2013-02-14 17:06:00,57.0,41.0,30.00,South,180,10.4,10.4,55,0.00,CLR,,0.00,WeatherDisplay:10.37,2013-02-14 22:06:00,
2013-02-14 17:11:00,56.8,40.8,30.00,SSW,202,6.9,7.0,55,0.00,CLR,,0.00,WeatherDisplay:10.37,2013-02-14 22:11:00,
2013-02-14 17:16:00,57.2,40.7,30.00,SW,225,5.8,5.8,54,0.00,CLR,,0.00,WeatherDisplay:10.37,2013-02-14 22:16:00,
2013-02-14 17:21:00,57.4,40.9,30.00,South,180,10.4,10.4,54,0.00,CLR,,0.00,WeatherDisplay:10.37,2013-02-14 22:21:00,
2013-02-14 17:26:00,57.2,41.2,30.00,South,180,4.6,4.6,55,0.00,CLR,,0.00,WeatherDisplay:10.37,2013-02-14 22:26:00,
2013-02-14 17:31:00,57.2,40.7,30.00,SW,225,6.9,6.9,54,0.00,CLR,,0.00,WeatherDisplay:10.37,2013-02-14 22:31:00,
2013-02-14 17:36:00,56.8,40.4,30.00,South,180,10.4,10.4,54,0.00,CLR,,0.00,WeatherDisplay:10.37,2013-02-14 22:36:00,
2013-02-14 17:41:00,56.1,39.7,30.00,South,180,5.8,0.0,54,0.00,CLR,,0.00,WeatherDisplay:10.37,2013-02-14 22:41:00,
2013-02-14 17:46:00,55.8,39.8,30.00,South,180,4.6,4.6,55,0.00,CLR,,0.00,WeatherDisplay:10.37,2013-02-14 22:46:00,
2013-02-14 17:51:00,55.4,39.5,30.00,SW,225,8.1,8.1,55,0.00,CLR,,0.00,WeatherDisplay:10.37,2013-02-14 22:51:00,
2013-02-14 17:56:00,55.0,39.2,30.00,SW,225,5.8,5.8,55,0.00,CLR,,0.00,WeatherDisplay:10.37,2013-02-14 22:56:00,
2013-02-14 18:01:00,54.7,38.8,30.00,West,270,4.6,4.6,55,0.00,CLR,,0.00,WeatherDisplay:10.37,2013-02-14 23:01:00,
2013-02-14 18:06:00,54.7,38.8,30.00,West,270,4.6,4.6,55,0.00,CLR,,0.00,WeatherDisplay:10.37,2013-02-14 23:06:00,
2013-02-14 18:11:00,53.8,39.3,30.00,NW,315,0.0,0.0,58,0.00,CLR,,0.00,WeatherDisplay:10.37,2013-02-14 23:11:00,
2013-02-14 18:16:00,53.2,39.7,30.00,West,270,0.0,0.0,60,0.00,CLR,,0.00,WeatherDisplay:10.37,2013-02-14 23:16:00,
2013-02-14 18:21:00,52.2,39.9,30.01,NW,315,0.0,0.0,63,0.00,CLR,,0.00,WeatherDisplay:10.37,2013-02-14 23:21:00,
2013-02-14 18:26:00,51.1,39.3,30.01,SW,225,1.1,0.0,64,0.00,CLR,,0.00,WeatherDisplay:10.37,2013-02-14 23:26:00,
2013-02-14 18:31:00,50.4,39.0,30.01,NW,315,0.0,0.0,65,0.00,CLR,,0.00,WeatherDisplay:10.37,2013-02-14 23:31:00,
2013-02-14 18:36:00,49.3,38.8,30.01,NW,315,0.0,0.0,67,0.00,CLR,,0.00,WeatherDisplay:10.37,2013-02-14 23:36:00,
2013-02-14 18:41:00,48.4,38.7,30.02,West,270,0.0,0.0,69,0.00,CLR,,0.00,WeatherDisplay:10.37,2013-02-14 23:41:00,
2013-02-14 18:46:00,47.5,38.5,30.02,West,270,0.0,0.0,71,0.00,CLR,,0.00,WeatherDisplay:10.37,2013-02-14 23:46:00,
2013-02-14 18:51:00,46.9,38.4,30.02,NW,315,0.0,0.0,72,0.00,CLR,,0.00,WeatherDisplay:10.37,2013-02-14 23:51:00,
2013-02-14 18:56:00,46.0,37.9,30.02,NW,315,0.0,0.0,73,0.00,CLR,,0.00,WeatherDisplay:10.37,2013-02-14 23:56:00,
2013-02-14 19:01:00,45.7,37.9,30.02,NW,315,0.0,0.0,74,0.00,CLR,,0.00,WeatherDisplay:10.37,2013-02-15 00:01:00,
2013-02-14 19:06:00,45.0,37.5,30.02,NW,315,0.0,0.0,75,0.00,CLR,,0.00,WeatherDisplay:10.37,2013-02-15 00:06:00,
2013-02-14 19:11:00,44.6,37.5,30.02,NW,315,0.0,0.0,76,0.00,CLR,,0.00,WeatherDisplay:10.37,2013-02-15 00:11:00,
2013-02-14 19:16:00,43.9,37.5,30.02,NW,315,0.0,0.0,78,0.00,CLR,,0.00,WeatherDisplay:10.37,2013-02-15 00:16:00,
2013-02-14 19:21:00,43.5,37.4,30.02,NW,315,0.0,0.0,79,0.00,CLR,,0.00,WeatherDisplay:10.37,2013-02-15 00:21:00,
2013-02-14 19:26:00,43.2,37.4,30.02,NW,315,0.0,0.0,80,0.00,CLR,,0.00,WeatherDisplay:10.37,2013-02-15 00:26:00,
2013-02-14 19:31:00,42.6,37.5,30.03,NW,315,0.0,0.0,82,0.00,CLR,,0.00,WeatherDisplay:10.37,2013-02-15 00:31:00,
2013-02-14 19:36:00,42.4,37.6,30.03,NW,315,0.0,0.0,83,0.00,CLR,,0.00,WeatherDisplay:10.37,2013-02-15 00:36:00,
2013-02-14 19:41:00,42.1,37.3,30.03,NW,315,0.0,0.0,83,0.00,CLR,,0.00,WeatherDisplay:10.37,2013-02-15 00:41:00,
2013-02-14 19:46:00,41.9,37.1,30.03,NW,315,0.0,0.0,83,0.00,CLR,,0.00,WeatherDisplay:10.37,2013-02-15 00:46:00,
2013-02-14 19:51:00,41.7,37.2,30.03,West,270,0.0,0.0,84,0.00,CLR,,0.00,WeatherDisplay:10.37,2013-02-15 00:51:00,
2013-02-14 19:56:00,41.5,37.1,30.03,West,270,0.0,0.0,84,0.00,CLR,,0.00,WeatherDisplay:10.37,2013-02-15 00:56:00,
2013-02-14 20:01:00,41.4,36.9,30.03,West,270,0.0,0.0,84,0.00,CLR,,0.00,WeatherDisplay:10.37,2013-02-15 01:01:00,
2013-02-14 20:06:00,41.2,36.7,30.03,NW,315,0.0,0.0,84,0.00,CLR,,0.00,WeatherDisplay:10.37,2013-02-15 01:06:00,
2013-02-14 20:11:00,41.2,36.7,30.03,NW,315,0.0,0.0,84,0.00,CLR,,0.00,WeatherDisplay:10.37,2013-02-15 01:11:00,
2013-02-14 20:16:00,41.0,36.8,30.03,NW,315,0.0,0.0,85,0.00,CLR,,0.00,WeatherDisplay:10.37,2013-02-15 01:16:00,
2013-02-14 20:21:00,41.0,36.8,30.04,NW,315,0.0,0.0,85,0.00,CLR,,0.00,WeatherDisplay:10.37,2013-02-15 01:21:00,
2013-02-14 20:26:00,41.0,36.8,30.03,NW,315,0.0,0.0,85,0.00,CLR,,0.00,WeatherDisplay:10.37,2013-02-15 01:26:00,
2013-02-14 20:31:00,40.8,37.0,30.04,NW,315,0.0,0.0,86,0.00,CLR,,0.00,WeatherDisplay:10.37,2013-02-15 01:31:00,
2013-02-14 20:36:00,40.8,37.0,30.04,West,270,0.0,0.0,86,0.00,CLR,,0.00,WeatherDisplay:10.37,2013-02-15 01:36:00,
2013-02-14 20:41:00,41.0,37.1,30.04,North,0,1.1,0.0,86,0.00,CLR,,0.00,WeatherDisplay:10.37,2013-02-15 01:41:00,
2013-02-14 20:46:00,41.0,37.1,30.04,West,270,0.0,0.0,86,0.00,CLR,,0.00,WeatherDisplay:10.37,2013-02-15 01:46:00,
2013-02-14 20:51:00,40.8,37.3,30.04,West,270,0.0,0.0,87,0.00,CLR,,0.00,WeatherDisplay:10.37,2013-02-15 01:51:00,
2013-02-14 20:56:00,40.5,36.9,30.03,West,270,0.0,0.0,87,0.00,CLR,,0.00,WeatherDisplay:10.37,2013-02-15 01:56:00,
2013-02-14 21:01:00,40.3,36.7,30.03,West,270,0.0,0.0,87,0.00,CLR,,0.00,WeatherDisplay:10.37,2013-02-15 02:01:00,
2013-02-14 21:06:00,39.9,36.4,30.04,West,270,0.0,0.0,87,0.00,CLR,,0.00,WeatherDisplay:10.37,2013-02-15 02:06:00,
2013-02-14 21:11:00,39.9,36.4,30.04,West,270,0.0,0.0,87,0.00,CLR,,0.00,WeatherDisplay:10.37,2013-02-15 02:11:00,
2013-02-14 21:16:00,39.7,36.5,30.03,West,270,0.0,0.0,88,0.00,CLR,,0.00,WeatherDisplay:10.37,2013-02-15 02:16:00,
2013-02-14 21:21:00,39.7,36.5,30.04,West,270,0.0,0.0,88,0.00,CLR,,0.00,WeatherDisplay:10.37,2013-02-15 02:21:00,
2013-02-14 21:26:00,39.4,36.1,30.04,West,270,0.0,0.0,88,0.00,CLR,,0.00,WeatherDisplay:10.37,2013-02-15 02:26:00,
2013-02-14 21:31:00,39.0,36.1,30.04,West,270,0.0,0.0,89,0.00,CLR,,0.00,WeatherDisplay:10.37,2013-02-15 02:31:00,
2013-02-14 21:36:00,39.0,36.3,30.04,West,270,0.0,0.0,90,0.00,CLR,,0.00,WeatherDisplay:10.37,2013-02-15 02:36:00,
2013-02-14 21:41:00,39.0,36.3,30.04,West,270,0.0,0.0,90,0.00,CLR,,0.00,WeatherDisplay:10.37,2013-02-15 02:41:00,
2013-02-14 21:46:00,38.8,36.2,30.04,West,270,0.0,0.0,90,0.00,CLR,,0.00,WeatherDisplay:10.37,2013-02-15 02:46:00,
2013-02-14 21:51:00,38.8,36.2,30.04,West,270,0.0,0.0,90,0.00,CLR,,0.00,WeatherDisplay:10.37,2013-02-15 02:51:00,
2013-02-14 21:56:00,38.7,36.3,30.04,West,270,0.0,0.0,91,0.00,CLR,,0.00,WeatherDisplay:10.37,2013-02-15 02:56:00,
2013-02-14 22:01:00,38.5,36.1,30.04,West,270,0.0,0.0,91,0.00,CLR,,0.00,WeatherDisplay:10.37,2013-02-15 03:01:00,
2013-02-14 22:06:00,38.3,35.9,30.04,West,270,0.0,0.0,91,0.00,CLR,,0.00,WeatherDisplay:10.37,2013-02-15 03:06:00,
2013-02-14 22:11:00,38.1,35.7,30.05,West,270,0.0,0.0,91,0.00,CLR,,0.00,WeatherDisplay:10.37,2013-02-15 03:11:00,
2013-02-14 22:16:00,37.9,35.8,30.04,NW,315,0.0,0.0,92,0.00,CLR,,0.00,WeatherDisplay:10.37,2013-02-15 03:16:00,
2013-02-14 22:21:00,37.8,35.6,30.04,West,270,0.0,0.0,92,0.00,CLR,,0.00,WeatherDisplay:10.37,2013-02-15 03:21:00,
2013-02-14 22:26:00,37.8,35.6,30.04,North,0,0.0,0.0,92,0.00,CLR,,0.00,WeatherDisplay:10.37,2013-02-15 03:26:00,
2013-02-14 22:31:00,37.8,35.9,30.05,NW,315,0.0,0.0,93,0.00,CLR,,0.00,WeatherDisplay:10.37,2013-02-15 03:31:00,
2013-02-14 22:36:00,37.6,35.7,30.05,West,270,0.0,0.0,93,0.00,CLR,,0.00,WeatherDisplay:10.37,2013-02-15 03:36:00,
2013-02-14 22:41:00,37.6,35.7,30.05,NW,315,0.0,0.0,93,0.00,CLR,,0.00,WeatherDisplay:10.37,2013-02-15 03:41:00,
2013-02-14 22:46:00,37.6,35.7,30.05,West,270,1.1,0.0,93,0.00,CLR,,0.00,WeatherDisplay:10.37,2013-02-15 03:46:00,
2013-02-14 22:51:00,37.6,35.7,30.05,West,270,0.0,0.0,93,0.00,CLR,,0.00,WeatherDisplay:10.37,2013-02-15 03:51:00,
2013-02-14 22:56:00,37.4,35.6,30.05,West,270,0.0,0.0,93,0.00,CLR,,0.00,WeatherDisplay:10.37,2013-02-15 03:56:00,
2013-02-14 23:01:00,37.4,35.6,30.05,West,270,0.0,0.0,93,0.00,CLR,,0.00,WeatherDisplay:10.37,2013-02-15 04:01:00,
2013-02-14 23:06:00,37.4,35.6,30.05,West,270,0.0,0.0,93,0.00,CLR,,0.00,WeatherDisplay:10.37,2013-02-15 04:06:00,
2013-02-14 23:11:00,37.0,34.4,30.05,West,270,0.0,0.0,90,0.00,CLR,,0.00,WeatherDisplay:10.37,2013-02-15 04:11:00,
2013-02-14 23:16:00,36.9,34.2,30.05,NW,315,0.0,0.0,90,0.00,CLR,,0.00,WeatherDisplay:10.37,2013-02-15 04:16:00,
2013-02-14 23:21:00,36.9,34.2,30.05,NW,315,0.0,0.0,90,0.00,CLR,,0.00,WeatherDisplay:10.37,2013-02-15 04:21:00,
2013-02-14 23:26:00,36.9,34.2,30.05,NW,315,0.0,0.0,90,0.00,CLR,,0.00,WeatherDisplay:10.37,2013-02-15 04:26:00,
2013-02-14 23:31:00,36.7,34.3,30.05,NW,315,0.0,0.0,91,0.00,CLR,,0.00,WeatherDisplay:10.37,2013-02-15 04:31:00,
2013-02-14 23:36:00,36.7,34.3,30.05,NW,315,0.0,0.0,91,0.00,CLR,,0.00,WeatherDisplay:10.37,2013-02-15 04:36:00,
2013-02-14 23:41:00,36.5,34.1,30.05,NW,315,0.0,0.0,91,0.00,CLR,,0.00,WeatherDisplay:10.37,2013-02-15 04:41:00,
2013-02-14 23:46:00,36.3,33.9,30.05,NW,315,0.0,0.0,91,0.00,CLR,,0.00,WeatherDisplay:10.37,2013-02-15 04:46:00,
2013-02-14 23:51:00,36.1,33.8,30.05,West,270,0.0,0.0,91,0.00,CLR,,0.00,WeatherDisplay:10.37,2013-02-15 04:51:00,
2013-02-14 23:56:00,35.8,33.4,30.05,NW,315,0.0,0.0,91,0.00,CLR,,0.00,WeatherDisplay:10.37,2013-02-15 04:56:00,